#datetime,building,power
2023-10-29T00:00:00,hdy,63.89
2023-10-29T00:01:00,hdy,65.10
2023-10-29T00:02:00,hdy,66.19
2023-10-29T00:03:00,hdy,64.98
2023-10-29T00:04:00,hdy,62.43
2023-10-29T00:05:00,hdy,62.61
2023-10-29T00:06:00,hdy,63.85
2023-10-29T00:07:00,hdy,65.89
2023-10-29T00:08:00,hdy,66.58
2023-10-29T00:09:00,hdy,66.71
2023-10-29T00:10:00,hdy,65.46
2023-10-29T00:11:00,hdy,62.99
2023-10-29T00:12:00,hdy,65.83
2023-10-29T00:13:00,hdy,65.58
2023-10-29T00:14:00,hdy,63.43
2023-10-29T00:15:00,hdy,63.18
2023-10-29T00:16:00,hdy,63.81
2023-10-29T00:17:00,hdy,63.72
2023-10-29T00:18:00,hdy,65.83
2023-10-29T00:19:00,hdy,65.86
2023-10-29T00:20:00,hdy,65.85
2023-10-29T00:21:00,hdy,64.01
2023-10-29T00:22:00,hdy,63.51
2023-10-29T00:23:00,hdy,64.28
2023-10-29T00:24:00,hdy,62.16
2023-10-29T00:25:00,hdy,62.19
2023-10-29T00:26:00,hdy,62.82
2023-10-29T00:27:00,hdy,64.61
2023-10-29T00:28:00,hdy,62.73
2023-10-29T00:29:00,hdy,63.09
2023-10-29T00:30:00,hdy,63.53
2023-10-29T00:31:00,hdy,62.62
2023-10-29T00:32:00,hdy,62.04
2023-10-29T00:33:00,hdy,63.58
2023-10-29T00:34:00,hdy,66.05
2023-10-29T00:35:00,hdy,68.55
2023-10-29T00:36:00,hdy,69.46
2023-10-29T00:37:00,hdy,67.58
2023-10-29T00:38:00,hdy,63.54
2023-10-29T00:39:00,hdy,65.48
2023-10-29T00:40:00,hdy,66.94
2023-10-29T00:41:00,hdy,64.91
2023-10-29T00:42:00,hdy,64.09
2023-10-29T00:43:00,hdy,63.90
2023-10-29T00:44:00,hdy,63.93
2023-10-29T00:45:00,hdy,63.44
2023-10-29T00:46:00,hdy,60.79
2023-10-29T00:47:00,hdy,62.87
2023-10-29T00:48:00,hdy,61.84
2023-10-29T00:49:00,hdy,61.69
2023-10-29T00:50:00,hdy,61.56
2023-10-29T00:51:00,hdy,63.62
2023-10-29T00:52:00,hdy,64.97
2023-10-29T00:53:00,hdy,64.90
2023-10-29T00:54:00,hdy,63.98
2023-10-29T00:55:00,hdy,65.18
2023-10-29T00:56:00,hdy,67.97
2023-10-29T00:57:00,hdy,62.30
2023-10-29T00:58:00,hdy,63.60
2023-10-29T00:59:00,hdy,65.07
2023-10-29T01:00:00,hdy,67.04
2023-10-29T01:01:00,hdy,63.69
2023-10-29T01:02:00,hdy,63.50
2023-10-29T01:03:00,hdy,63.93
2023-10-29T01:04:00,hdy,63.76
2023-10-29T01:05:00,hdy,65.41
2023-10-29T01:06:00,hdy,63.66
2023-10-29T01:07:00,hdy,63.42
2023-10-29T01:08:00,hdy,65.74
2023-10-29T01:09:00,hdy,66.53
2023-10-29T01:10:00,hdy,63.78
2023-10-29T01:11:00,hdy,64.36
2023-10-29T01:12:00,hdy,64.54
2023-10-29T01:13:00,hdy,64.02
2023-10-29T01:14:00,hdy,63.02
2023-10-29T01:15:00,hdy,63.17
2023-10-29T01:16:00,hdy,64.22
2023-10-29T01:17:00,hdy,66.17
2023-10-29T01:18:00,hdy,66.15
2023-10-29T01:19:00,hdy,66.10
2023-10-29T01:20:00,hdy,70.63
2023-10-29T01:21:00,hdy,70.16
2023-10-29T01:22:00,hdy,69.55
2023-10-29T01:23:00,hdy,67.68
2023-10-29T01:24:00,hdy,69.68
2023-10-29T01:25:00,hdy,67.58
2023-10-29T01:26:00,hdy,64.95
2023-10-29T01:27:00,hdy,61.96
2023-10-29T01:28:00,hdy,64.85
2023-10-29T01:29:00,hdy,64.83
2023-10-29T01:30:00,hdy,64.90
2023-10-29T01:31:00,hdy,68.25
2023-10-29T01:32:00,hdy,73.15
2023-10-29T01:33:00,hdy,68.05
2023-10-29T01:34:00,hdy,67.63
2023-10-29T01:35:00,hdy,70.02
2023-10-29T01:36:00,hdy,65.65
2023-10-29T01:37:00,hdy,65.23
2023-10-29T01:38:00,hdy,69.50
2023-10-29T01:39:00,hdy,66.93
2023-10-29T01:40:00,hdy,65.76
2023-10-29T01:41:00,hdy,67.20
2023-10-29T01:42:00,hdy,66.80
2023-10-29T01:43:00,hdy,66.99
2023-10-29T01:44:00,hdy,65.52
2023-10-29T01:45:00,hdy,70.43
2023-10-29T01:46:00,hdy,67.00
2023-10-29T01:47:00,hdy,65.93
2023-10-29T01:48:00,hdy,68.63
2023-10-29T01:49:00,hdy,66.94
2023-10-29T01:50:00,hdy,66.27
2023-10-29T01:51:00,hdy,66.08
2023-10-29T01:52:00,hdy,65.92
2023-10-29T01:53:00,hdy,68.02
2023-10-29T01:54:00,hdy,68.05
2023-10-29T01:55:00,hdy,68.14
2023-10-29T01:56:00,hdy,66.91
2023-10-29T01:57:00,hdy,65.67
2023-10-29T01:58:00,hdy,68.04
2023-10-29T01:59:00,hdy,66.76
2023-10-29T02:00:00,hdy,66.91
2023-10-29T02:01:00,hdy,68.59
2023-10-29T02:02:00,hdy,67.84
2023-10-29T02:03:00,hdy,66.80
2023-10-29T02:04:00,hdy,67.68
2023-10-29T02:05:00,hdy,68.69
2023-10-29T02:06:00,hdy,67.31
2023-10-29T02:07:00,hdy,66.05
2023-10-29T02:08:00,hdy,65.10
2023-10-29T02:09:00,hdy,66.33
2023-10-29T02:10:00,hdy,64.23
2023-10-29T02:11:00,hdy,66.00
2023-10-29T02:12:00,hdy,65.79
2023-10-29T02:13:00,hdy,66.03
2023-10-29T02:14:00,hdy,67.03
2023-10-29T02:15:00,hdy,67.73
2023-10-29T02:16:00,hdy,65.30
2023-10-29T02:17:00,hdy,64.68
2023-10-29T02:18:00,hdy,64.64
2023-10-29T02:19:00,hdy,65.29
2023-10-29T02:20:00,hdy,68.94
2023-10-29T02:21:00,hdy,67.00
2023-10-29T02:22:00,hdy,64.57
2023-10-29T02:23:00,hdy,65.97
2023-10-29T02:24:00,hdy,63.42
2023-10-29T02:25:00,hdy,61.68
2023-10-29T02:26:00,hdy,62.23
2023-10-29T02:27:00,hdy,64.16
2023-10-29T02:28:00,hdy,62.56
2023-10-29T02:29:00,hdy,63.73
2023-10-29T02:30:00,hdy,62.51
2023-10-29T02:31:00,hdy,61.28
2023-10-29T02:32:00,hdy,63.27
2023-10-29T02:33:00,hdy,63.36
2023-10-29T02:34:00,hdy,62.88
2023-10-29T02:35:00,hdy,63.70
2023-10-29T02:36:00,hdy,64.85
2023-10-29T02:37:00,hdy,66.04
2023-10-29T02:38:00,hdy,64.20
2023-10-29T02:39:00,hdy,60.26
2023-10-29T02:40:00,hdy,60.05
2023-10-29T02:41:00,hdy,60.83
2023-10-29T02:42:00,hdy,61.76
2023-10-29T02:43:00,hdy,62.13
2023-10-29T02:44:00,hdy,62.28
2023-10-29T02:45:00,hdy,60.86
2023-10-29T02:46:00,hdy,61.46
2023-10-29T02:47:00,hdy,62.09
2023-10-29T02:48:00,hdy,59.21
2023-10-29T02:49:00,hdy,60.95
2023-10-29T02:50:00,hdy,58.78
2023-10-29T02:51:00,hdy,59.71
2023-10-29T02:52:00,hdy,58.60
2023-10-29T02:53:00,hdy,58.16
2023-10-29T02:54:00,hdy,60.82
2023-10-29T02:55:00,hdy,61.55
2023-10-29T02:56:00,hdy,62.72
2023-10-29T02:57:00,hdy,59.99
2023-10-29T02:58:00,hdy,60.10
2023-10-29T02:59:00,hdy,59.12
2023-10-29T03:00:00,hdy,59.40
2023-10-29T03:01:00,hdy,59.43
2023-10-29T03:02:00,hdy,58.16
2023-10-29T03:03:00,hdy,58.98
2023-10-29T03:04:00,hdy,61.85
2023-10-29T03:05:00,hdy,59.97
2023-10-29T03:06:00,hdy,58.46
2023-10-29T03:07:00,hdy,57.42
2023-10-29T03:08:00,hdy,59.28
2023-10-29T03:09:00,hdy,58.10
2023-10-29T03:10:00,hdy,59.48
2023-10-29T03:11:00,hdy,60.06
2023-10-29T03:12:00,hdy,60.19
2023-10-29T03:13:00,hdy,57.29
2023-10-29T03:14:00,hdy,58.51
2023-10-29T03:15:00,hdy,59.83
2023-10-29T03:16:00,hdy,57.95
2023-10-29T03:17:00,hdy,57.66
2023-10-29T03:18:00,hdy,59.76
2023-10-29T03:19:00,hdy,62.11
2023-10-29T03:20:00,hdy,57.65
2023-10-29T03:21:00,hdy,58.43
2023-10-29T03:22:00,hdy,58.68
2023-10-29T03:23:00,hdy,59.14
2023-10-29T03:24:00,hdy,60.39
2023-10-29T03:25:00,hdy,59.45
2023-10-29T03:26:00,hdy,60.03
2023-10-29T03:27:00,hdy,59.17
2023-10-29T03:28:00,hdy,58.89
2023-10-29T03:29:00,hdy,56.49
2023-10-29T03:30:00,hdy,57.57
2023-10-29T03:31:00,hdy,59.84
2023-10-29T03:32:00,hdy,57.92
2023-10-29T03:33:00,hdy,57.39
2023-10-29T03:34:00,hdy,56.36
2023-10-29T03:35:00,hdy,58.86
2023-10-29T03:36:00,hdy,56.86
2023-10-29T03:37:00,hdy,55.65
2023-10-29T03:38:00,hdy,56.17
2023-10-29T03:39:00,hdy,57.20
2023-10-29T03:40:00,hdy,57.17
2023-10-29T03:41:00,hdy,55.90
2023-10-29T03:42:00,hdy,56.43
2023-10-29T03:43:00,hdy,57.39
2023-10-29T03:44:00,hdy,57.29
2023-10-29T03:45:00,hdy,58.70
2023-10-29T03:46:00,hdy,56.72
2023-10-29T03:47:00,hdy,57.60
2023-10-29T03:48:00,hdy,56.59
2023-10-29T03:49:00,hdy,56.40
2023-10-29T03:50:00,hdy,55.99
2023-10-29T03:51:00,hdy,56.36
2023-10-29T03:52:00,hdy,56.79
2023-10-29T03:53:00,hdy,56.75
2023-10-29T03:54:00,hdy,57.38
2023-10-29T03:55:00,hdy,57.12
2023-10-29T03:56:00,hdy,57.28
2023-10-29T03:57:00,hdy,58.27
2023-10-29T03:58:00,hdy,55.33
2023-10-29T03:59:00,hdy,57.70
2023-10-29T04:00:00,hdy,57.37
2023-10-29T04:01:00,hdy,58.07
2023-10-29T04:02:00,hdy,57.44
2023-10-29T04:03:00,hdy,54.26
2023-10-29T04:04:00,hdy,54.94
2023-10-29T04:05:00,hdy,54.13
2023-10-29T04:06:00,hdy,54.70
2023-10-29T04:07:00,hdy,55.07
2023-10-29T04:08:00,hdy,55.81
2023-10-29T04:09:00,hdy,54.58
2023-10-29T04:10:00,hdy,53.13
2023-10-29T04:11:00,hdy,53.11
2023-10-29T04:12:00,hdy,53.75
2023-10-29T04:13:00,hdy,55.31
2023-10-29T04:14:00,hdy,55.66
2023-10-29T04:15:00,hdy,58.29
2023-10-29T04:16:00,hdy,59.01
2023-10-29T04:17:00,hdy,56.16
2023-10-29T04:18:00,hdy,54.23
2023-10-29T04:19:00,hdy,53.81
2023-10-29T04:20:00,hdy,54.81
2023-10-29T04:21:00,hdy,56.45
2023-10-29T04:22:00,hdy,55.79
2023-10-29T04:23:00,hdy,55.70
2023-10-29T04:24:00,hdy,56.17
2023-10-29T04:25:00,hdy,56.28
2023-10-29T04:26:00,hdy,54.46
2023-10-29T04:27:00,hdy,54.18
2023-10-29T04:28:00,hdy,55.61
2023-10-29T04:29:00,hdy,54.84
2023-10-29T04:30:00,hdy,53.75
2023-10-29T04:31:00,hdy,53.81
2023-10-29T04:32:00,hdy,55.78
2023-10-29T04:33:00,hdy,53.56
2023-10-29T04:34:00,hdy,54.38
2023-10-29T04:35:00,hdy,53.64
2023-10-29T04:36:00,hdy,55.07
2023-10-29T04:37:00,hdy,53.41
2023-10-29T04:38:00,hdy,54.34
2023-10-29T04:39:00,hdy,54.17
2023-10-29T04:40:00,hdy,55.93
2023-10-29T04:41:00,hdy,56.74
2023-10-29T04:42:00,hdy,57.35
2023-10-29T04:43:00,hdy,55.67
2023-10-29T04:44:00,hdy,54.69
2023-10-29T04:45:00,hdy,53.88
2023-10-29T04:46:00,hdy,54.65
2023-10-29T04:47:00,hdy,55.49
2023-10-29T04:48:00,hdy,53.64
2023-10-29T04:49:00,hdy,54.06
2023-10-29T04:50:00,hdy,55.85
2023-10-29T04:51:00,hdy,54.82
2023-10-29T04:52:00,hdy,53.21
2023-10-29T04:53:00,hdy,52.41
2023-10-29T04:54:00,hdy,52.55
2023-10-29T04:55:00,hdy,53.34
2023-10-29T04:56:00,hdy,53.12
2023-10-29T04:57:00,hdy,53.27
2023-10-29T04:58:00,hdy,54.14
2023-10-29T04:59:00,hdy,54.61
2023-10-29T05:00:00,hdy,54.09
2023-10-29T05:01:00,hdy,53.87
2023-10-29T05:02:00,hdy,53.36
2023-10-29T05:03:00,hdy,54.26
2023-10-29T05:04:00,hdy,55.47
2023-10-29T05:05:00,hdy,52.99
2023-10-29T05:06:00,hdy,54.36
2023-10-29T05:07:00,hdy,54.89
2023-10-29T05:08:00,hdy,53.78
2023-10-29T05:09:00,hdy,54.12
2023-10-29T05:10:00,hdy,54.84
2023-10-29T05:11:00,hdy,54.58
2023-10-29T05:12:00,hdy,54.94
2023-10-29T05:13:00,hdy,53.74
2023-10-29T05:14:00,hdy,55.55
2023-10-29T05:15:00,hdy,54.86
2023-10-29T05:16:00,hdy,56.74
2023-10-29T05:17:00,hdy,55.76
2023-10-29T05:18:00,hdy,55.77
2023-10-29T05:19:00,hdy,55.42
2023-10-29T05:20:00,hdy,54.13
2023-10-29T05:21:00,hdy,54.43
2023-10-29T05:22:00,hdy,55.20
2023-10-29T05:23:00,hdy,54.68
2023-10-29T05:24:00,hdy,56.05
2023-10-29T05:25:00,hdy,56.99
2023-10-29T05:26:00,hdy,54.91
2023-10-29T05:27:00,hdy,53.57
2023-10-29T05:28:00,hdy,53.82
2023-10-29T05:29:00,hdy,55.38
2023-10-29T05:30:00,hdy,54.89
2023-10-29T05:31:00,hdy,54.83
2023-10-29T05:32:00,hdy,55.58
2023-10-29T05:33:00,hdy,54.73
2023-10-29T05:34:00,hdy,54.21
2023-10-29T05:35:00,hdy,53.12
2023-10-29T05:36:00,hdy,52.73
2023-10-29T05:37:00,hdy,52.68
2023-10-29T05:38:00,hdy,54.81
2023-10-29T05:39:00,hdy,55.32
2023-10-29T05:40:00,hdy,54.99
2023-10-29T05:41:00,hdy,53.18
2023-10-29T05:42:00,hdy,53.00
2023-10-29T05:43:00,hdy,52.19
2023-10-29T05:44:00,hdy,51.60
2023-10-29T05:45:00,hdy,53.55
2023-10-29T05:46:00,hdy,53.02
2023-10-29T05:47:00,hdy,54.75
2023-10-29T05:48:00,hdy,53.28
2023-10-29T05:49:00,hdy,53.25
2023-10-29T05:50:00,hdy,53.48
2023-10-29T05:51:00,hdy,55.80
2023-10-29T05:52:00,hdy,55.55
2023-10-29T05:53:00,hdy,53.91
2023-10-29T05:54:00,hdy,53.82
2023-10-29T05:55:00,hdy,55.23
2023-10-29T05:56:00,hdy,54.92
2023-10-29T05:57:00,hdy,54.05
2023-10-29T05:58:00,hdy,53.45
2023-10-29T05:59:00,hdy,54.37
2023-10-29T06:00:00,hdy,55.50
2023-10-29T06:01:00,hdy,53.06
2023-10-29T06:02:00,hdy,53.55
2023-10-29T06:03:00,hdy,54.26
2023-10-29T06:04:00,hdy,54.22
2023-10-29T06:05:00,hdy,54.06
2023-10-29T06:06:00,hdy,55.41
2023-10-29T06:07:00,hdy,54.15
2023-10-29T06:08:00,hdy,54.25
2023-10-29T06:09:00,hdy,54.16
2023-10-29T06:10:00,hdy,52.93
2023-10-29T06:11:00,hdy,52.66
2023-10-29T06:12:00,hdy,53.09
2023-10-29T06:13:00,hdy,55.58
2023-10-29T06:14:00,hdy,54.01
2023-10-29T06:15:00,hdy,53.76
2023-10-29T06:16:00,hdy,52.32
2023-10-29T06:17:00,hdy,52.05
2023-10-29T06:18:00,hdy,52.13
2023-10-29T06:19:00,hdy,51.99
2023-10-29T06:20:00,hdy,54.54
2023-10-29T06:21:00,hdy,55.83
2023-10-29T06:22:00,hdy,54.24
2023-10-29T06:23:00,hdy,52.87
2023-10-29T06:24:00,hdy,53.01
2023-10-29T06:25:00,hdy,52.53
2023-10-29T06:26:00,hdy,53.52
2023-10-29T06:27:00,hdy,54.12
2023-10-29T06:28:00,hdy,54.16
2023-10-29T06:29:00,hdy,54.99
2023-10-29T06:30:00,hdy,55.32
2023-10-29T06:31:00,hdy,56.09
2023-10-29T06:32:00,hdy,55.38
2023-10-29T06:33:00,hdy,58.15
2023-10-29T06:34:00,hdy,56.71
2023-10-29T06:35:00,hdy,56.48
2023-10-29T06:36:00,hdy,55.55
2023-10-29T06:37:00,hdy,56.41
2023-10-29T06:38:00,hdy,56.87
2023-10-29T06:39:00,hdy,54.65
2023-10-29T06:40:00,hdy,56.32
2023-10-29T06:41:00,hdy,56.74
2023-10-29T06:42:00,hdy,57.11
2023-10-29T06:43:00,hdy,55.76
2023-10-29T06:44:00,hdy,55.54
2023-10-29T06:45:00,hdy,57.08
2023-10-29T06:46:00,hdy,58.25
2023-10-29T06:47:00,hdy,55.87
2023-10-29T06:48:00,hdy,56.17
2023-10-29T06:49:00,hdy,57.34
2023-10-29T06:50:00,hdy,55.22
2023-10-29T06:51:00,hdy,54.63
2023-10-29T06:52:00,hdy,54.78
2023-10-29T06:53:00,hdy,58.31
2023-10-29T06:54:00,hdy,57.87
2023-10-29T06:55:00,hdy,56.08
2023-10-29T06:56:00,hdy,55.50
2023-10-29T06:57:00,hdy,56.46
2023-10-29T06:58:00,hdy,56.08
2023-10-29T06:59:00,hdy,54.99
2023-10-29T07:00:00,hdy,55.03
2023-10-29T07:01:00,hdy,55.88
2023-10-29T07:02:00,hdy,56.98
2023-10-29T07:03:00,hdy,56.69
2023-10-29T07:04:00,hdy,54.89
2023-10-29T07:05:00,hdy,55.47
2023-10-29T07:06:00,hdy,56.73
2023-10-29T07:07:00,hdy,56.59
2023-10-29T07:08:00,hdy,56.84
2023-10-29T07:09:00,hdy,57.55
2023-10-29T07:10:00,hdy,57.61
2023-10-29T07:11:00,hdy,56.40
2023-10-29T07:12:00,hdy,56.57
2023-10-29T07:13:00,hdy,55.92
2023-10-29T07:14:00,hdy,57.03
2023-10-29T07:15:00,hdy,56.94
2023-10-29T07:16:00,hdy,58.28
2023-10-29T07:17:00,hdy,55.70
2023-10-29T07:18:00,hdy,55.32
2023-10-29T07:19:00,hdy,54.98
2023-10-29T07:20:00,hdy,55.55
2023-10-29T07:21:00,hdy,57.18
2023-10-29T07:22:00,hdy,56.72
2023-10-29T07:23:00,hdy,58.96
2023-10-29T07:24:00,hdy,56.24
2023-10-29T07:25:00,hdy,57.13
2023-10-29T07:26:00,hdy,57.75
2023-10-29T07:27:00,hdy,57.51
2023-10-29T07:28:00,hdy,57.48
2023-10-29T07:29:00,hdy,59.07
2023-10-29T07:30:00,hdy,56.16
2023-10-29T07:31:00,hdy,55.58
2023-10-29T07:32:00,hdy,55.68
2023-10-29T07:33:00,hdy,58.00
2023-10-29T07:34:00,hdy,58.28
2023-10-29T07:35:00,hdy,57.95
2023-10-29T07:36:00,hdy,55.88
2023-10-29T07:37:00,hdy,54.84
2023-10-29T07:38:00,hdy,55.35
2023-10-29T07:39:00,hdy,57.20
2023-10-29T07:40:00,hdy,57.00
2023-10-29T07:41:00,hdy,58.28
2023-10-29T07:42:00,hdy,57.40
2023-10-29T07:43:00,hdy,57.12
2023-10-29T07:44:00,hdy,55.69
2023-10-29T07:45:00,hdy,55.17
2023-10-29T07:46:00,hdy,55.73
2023-10-29T07:47:00,hdy,55.18
2023-10-29T07:48:00,hdy,56.41
2023-10-29T07:49:00,hdy,57.76
2023-10-29T07:50:00,hdy,56.45
2023-10-29T07:51:00,hdy,55.48
2023-10-29T07:52:00,hdy,56.51
2023-10-29T07:53:00,hdy,56.87
2023-10-29T07:54:00,hdy,56.37
2023-10-29T07:55:00,hdy,55.88
2023-10-29T07:56:00,hdy,56.37
2023-10-29T07:57:00,hdy,55.00
2023-10-29T07:58:00,hdy,54.85
2023-10-29T07:59:00,hdy,56.07
2023-10-29T08:00:00,hdy,54.86
2023-10-29T08:01:00,hdy,55.51
2023-10-29T08:02:00,hdy,57.47
2023-10-29T08:03:00,hdy,55.70
2023-10-29T08:04:00,hdy,54.64
2023-10-29T08:05:00,hdy,53.87
2023-10-29T08:06:00,hdy,55.57
2023-10-29T08:07:00,hdy,55.83
2023-10-29T08:08:00,hdy,57.84
2023-10-29T08:09:00,hdy,57.40
2023-10-29T08:10:00,hdy,56.67
2023-10-29T08:11:00,hdy,57.66
2023-10-29T08:12:00,hdy,55.85
2023-10-29T08:13:00,hdy,56.00
2023-10-29T08:14:00,hdy,56.17
2023-10-29T08:15:00,hdy,58.63
2023-10-29T08:16:00,hdy,58.58
2023-10-29T08:17:00,hdy,57.41
2023-10-29T08:18:00,hdy,55.92
2023-10-29T08:19:00,hdy,56.91
2023-10-29T08:20:00,hdy,56.88
2023-10-29T08:21:00,hdy,57.41
2023-10-29T08:22:00,hdy,58.45
2023-10-29T08:23:00,hdy,58.33
2023-10-29T08:24:00,hdy,58.68
2023-10-29T08:25:00,hdy,55.70
2023-10-29T08:26:00,hdy,56.34
2023-10-29T08:27:00,hdy,56.63
2023-10-29T08:28:00,hdy,59.18
2023-10-29T08:29:00,hdy,58.71
2023-10-29T08:30:00,hdy,58.30
2023-10-29T08:31:00,hdy,57.01
2023-10-29T08:32:00,hdy,57.78
2023-10-29T08:33:00,hdy,57.02
2023-10-29T08:34:00,hdy,58.41
2023-10-29T08:35:00,hdy,57.62
2023-10-29T08:36:00,hdy,58.03
2023-10-29T08:37:00,hdy,57.76
2023-10-29T08:38:00,hdy,59.89
2023-10-29T08:39:00,hdy,58.24
2023-10-29T08:40:00,hdy,58.06
2023-10-29T08:41:00,hdy,56.93
2023-10-29T08:42:00,hdy,58.31
2023-10-29T08:43:00,hdy,58.39
2023-10-29T08:44:00,hdy,57.38
2023-10-29T08:45:00,hdy,57.47
2023-10-29T08:46:00,hdy,58.62
2023-10-29T08:47:00,hdy,59.20
2023-10-29T08:48:00,hdy,60.09
2023-10-29T08:49:00,hdy,58.93
2023-10-29T08:50:00,hdy,58.96
2023-10-29T08:51:00,hdy,59.43
2023-10-29T08:52:00,hdy,59.80
2023-10-29T08:53:00,hdy,58.31
2023-10-29T08:54:00,hdy,59.22
2023-10-29T08:55:00,hdy,59.28
2023-10-29T08:56:00,hdy,59.19
2023-10-29T08:57:00,hdy,58.87
2023-10-29T08:58:00,hdy,58.24
2023-10-29T08:59:00,hdy,57.04
2023-10-29T09:00:00,hdy,57.51
2023-10-29T09:01:00,hdy,57.30
2023-10-29T09:02:00,hdy,58.57
2023-10-29T09:03:00,hdy,59.07
2023-10-29T09:04:00,hdy,58.56
2023-10-29T09:05:00,hdy,57.95
2023-10-29T09:06:00,hdy,59.41
2023-10-29T09:07:00,hdy,57.94
2023-10-29T09:08:00,hdy,58.17
2023-10-29T09:09:00,hdy,57.33
2023-10-29T09:10:00,hdy,58.89
2023-10-29T09:11:00,hdy,59.11
2023-10-29T09:12:00,hdy,57.71
2023-10-29T09:13:00,hdy,59.11
2023-10-29T09:14:00,hdy,58.72
2023-10-29T09:15:00,hdy,59.67
2023-10-29T09:16:00,hdy,59.87
2023-10-29T09:17:00,hdy,59.43
2023-10-29T09:18:00,hdy,60.27
2023-10-29T09:19:00,hdy,59.57
2023-10-29T09:20:00,hdy,60.00
2023-10-29T09:21:00,hdy,59.35
2023-10-29T09:22:00,hdy,59.23
2023-10-29T09:23:00,hdy,59.25
2023-10-29T09:24:00,hdy,60.39
2023-10-29T09:25:00,hdy,57.67
2023-10-29T09:26:00,hdy,58.81
2023-10-29T09:27:00,hdy,59.18
2023-10-29T09:28:00,hdy,57.37
2023-10-29T09:29:00,hdy,59.08
2023-10-29T09:30:00,hdy,57.76
2023-10-29T09:31:00,hdy,58.66
2023-10-29T09:32:00,hdy,59.30
2023-10-29T09:33:00,hdy,61.02
2023-10-29T09:34:00,hdy,58.20
2023-10-29T09:35:00,hdy,58.57
2023-10-29T09:36:00,hdy,59.24
2023-10-29T09:37:00,hdy,58.93
2023-10-29T09:38:00,hdy,59.34
2023-10-29T09:39:00,hdy,57.88
2023-10-29T09:40:00,hdy,60.41
2023-10-29T09:41:00,hdy,59.40
2023-10-29T09:42:00,hdy,60.80
2023-10-29T09:43:00,hdy,60.35
2023-10-29T09:44:00,hdy,60.65
2023-10-29T09:45:00,hdy,60.75
2023-10-29T09:46:00,hdy,59.52
2023-10-29T09:47:00,hdy,59.62
2023-10-29T09:48:00,hdy,62.41
2023-10-29T09:49:00,hdy,62.82
2023-10-29T09:50:00,hdy,60.61
2023-10-29T09:51:00,hdy,60.57
2023-10-29T09:52:00,hdy,60.11
2023-10-29T09:53:00,hdy,60.14
2023-10-29T09:54:00,hdy,59.82
2023-10-29T09:55:00,hdy,61.91
2023-10-29T09:56:00,hdy,62.24
2023-10-29T09:57:00,hdy,62.25
2023-10-29T09:58:00,hdy,60.29
2023-10-29T09:59:00,hdy,60.34
2023-10-29T10:00:00,hdy,58.93
2023-10-29T10:01:00,hdy,59.89
2023-10-29T10:02:00,hdy,59.43
2023-10-29T10:03:00,hdy,61.76
2023-10-29T10:04:00,hdy,62.31
2023-10-29T10:05:00,hdy,60.65
2023-10-29T10:06:00,hdy,60.32
2023-10-29T10:07:00,hdy,60.23
2023-10-29T10:08:00,hdy,62.17
2023-10-29T10:09:00,hdy,61.47
2023-10-29T10:10:00,hdy,60.60
2023-10-29T10:11:00,hdy,61.62
2023-10-29T10:12:00,hdy,62.49
2023-10-29T10:13:00,hdy,63.77
2023-10-29T10:14:00,hdy,62.37
2023-10-29T10:15:00,hdy,62.81
2023-10-29T10:16:00,hdy,62.72
2023-10-29T10:17:00,hdy,61.82
2023-10-29T10:18:00,hdy,61.51
2023-10-29T10:19:00,hdy,60.49
2023-10-29T10:20:00,hdy,61.37
2023-10-29T10:21:00,hdy,60.89
2023-10-29T10:22:00,hdy,62.08
2023-10-29T10:23:00,hdy,62.93
2023-10-29T10:24:00,hdy,61.09
2023-10-29T10:25:00,hdy,60.75
2023-10-29T10:26:00,hdy,62.12
2023-10-29T10:27:00,hdy,60.65
2023-10-29T10:28:00,hdy,60.09
2023-10-29T10:29:00,hdy,58.86
2023-10-29T10:30:00,hdy,59.53
2023-10-29T10:31:00,hdy,59.86
2023-10-29T10:32:00,hdy,61.44
2023-10-29T10:33:00,hdy,58.65
2023-10-29T10:34:00,hdy,61.31
2023-10-29T10:35:00,hdy,62.05
2023-10-29T10:36:00,hdy,63.02
2023-10-29T10:37:00,hdy,61.58
2023-10-29T10:38:00,hdy,61.19
2023-10-29T10:39:00,hdy,61.83
2023-10-29T10:40:00,hdy,60.94
2023-10-29T10:41:00,hdy,61.37
2023-10-29T10:42:00,hdy,61.78
2023-10-29T10:43:00,hdy,63.86
2023-10-29T10:44:00,hdy,61.93
2023-10-29T10:45:00,hdy,61.22
2023-10-29T10:46:00,hdy,60.83
2023-10-29T10:47:00,hdy,60.46
2023-10-29T10:48:00,hdy,62.67
2023-10-29T10:49:00,hdy,60.77
2023-10-29T10:50:00,hdy,62.74
2023-10-29T10:51:00,hdy,63.13
2023-10-29T10:52:00,hdy,62.69
2023-10-29T10:53:00,hdy,60.71
2023-10-29T10:54:00,hdy,61.93
2023-10-29T10:55:00,hdy,61.04
2023-10-29T10:56:00,hdy,65.76
2023-10-29T10:57:00,hdy,66.07
2023-10-29T10:58:00,hdy,67.40
2023-10-29T10:59:00,hdy,67.91
2023-10-29T11:00:00,hdy,64.40
2023-10-29T11:01:00,hdy,67.73
2023-10-29T11:02:00,hdy,69.95
2023-10-29T11:03:00,hdy,70.77
2023-10-29T11:04:00,hdy,69.26
2023-10-29T11:05:00,hdy,70.63
2023-10-29T11:06:00,hdy,71.45
2023-10-29T11:07:00,hdy,69.14
2023-10-29T11:08:00,hdy,68.95
2023-10-29T11:09:00,hdy,64.92
2023-10-29T11:10:00,hdy,65.35
2023-10-29T11:11:00,hdy,66.93
2023-10-29T11:12:00,hdy,68.59
2023-10-29T11:13:00,hdy,71.32
2023-10-29T11:14:00,hdy,71.34
2023-10-29T11:15:00,hdy,67.50
2023-10-29T11:16:00,hdy,69.99
2023-10-29T11:17:00,hdy,68.46
2023-10-29T11:18:00,hdy,72.24
2023-10-29T11:19:00,hdy,69.66
2023-10-29T11:20:00,hdy,70.20
2023-10-29T11:21:00,hdy,63.81
2023-10-29T11:22:00,hdy,65.72
2023-10-29T11:23:00,hdy,65.55
2023-10-29T11:24:00,hdy,68.05
2023-10-29T11:25:00,hdy,67.65
2023-10-29T11:26:00,hdy,65.70
2023-10-29T11:27:00,hdy,66.25
2023-10-29T11:28:00,hdy,64.99
2023-10-29T11:29:00,hdy,64.66
2023-10-29T11:30:00,hdy,68.29
2023-10-29T11:31:00,hdy,71.49
2023-10-29T11:32:00,hdy,66.39
2023-10-29T11:33:00,hdy,66.90
2023-10-29T11:34:00,hdy,65.85
2023-10-29T11:35:00,hdy,69.70
2023-10-29T11:36:00,hdy,69.08
2023-10-29T11:37:00,hdy,68.33
2023-10-29T11:38:00,hdy,66.15
2023-10-29T11:39:00,hdy,66.49
2023-10-29T11:40:00,hdy,65.96
2023-10-29T11:41:00,hdy,66.30
2023-10-29T11:42:00,hdy,66.55
2023-10-29T11:43:00,hdy,65.27
2023-10-29T11:44:00,hdy,65.91
2023-10-29T11:45:00,hdy,66.14
2023-10-29T11:46:00,hdy,65.23
2023-10-29T11:47:00,hdy,70.23
2023-10-29T11:48:00,hdy,67.08
2023-10-29T11:49:00,hdy,64.36
2023-10-29T11:50:00,hdy,64.54
2023-10-29T11:51:00,hdy,66.17
2023-10-29T11:52:00,hdy,65.52
2023-10-29T11:53:00,hdy,68.03
2023-10-29T11:54:00,hdy,66.20
2023-10-29T11:55:00,hdy,66.00
2023-10-29T11:56:00,hdy,65.37
2023-10-29T11:57:00,hdy,65.34
2023-10-29T11:58:00,hdy,67.87
2023-10-29T11:59:00,hdy,68.18
2023-10-29T12:00:00,hdy,68.85
2023-10-29T12:01:00,hdy,67.19
2023-10-29T12:02:00,hdy,66.37
2023-10-29T12:03:00,hdy,67.09
2023-10-29T12:04:00,hdy,70.16
2023-10-29T12:05:00,hdy,69.73
2023-10-29T12:06:00,hdy,68.42
2023-10-29T12:07:00,hdy,69.59
2023-10-29T12:08:00,hdy,70.17
2023-10-29T12:09:00,hdy,67.45
2023-10-29T12:10:00,hdy,67.76
2023-10-29T12:11:00,hdy,66.63
2023-10-29T12:12:00,hdy,69.51
2023-10-29T12:13:00,hdy,68.79
2023-10-29T12:14:00,hdy,66.63
2023-10-29T12:15:00,hdy,68.22
2023-10-29T12:16:00,hdy,70.01
2023-10-29T12:17:00,hdy,68.43
2023-10-29T12:18:00,hdy,70.62
2023-10-29T12:19:00,hdy,73.21
2023-10-29T12:20:00,hdy,70.03
2023-10-29T12:21:00,hdy,71.23
2023-10-29T12:22:00,hdy,70.08
2023-10-29T12:23:00,hdy,69.65
2023-10-29T12:24:00,hdy,66.50
2023-10-29T12:25:00,hdy,65.33
2023-10-29T12:26:00,hdy,66.57
2023-10-29T12:27:00,hdy,67.37
2023-10-29T12:28:00,hdy,68.54
2023-10-29T12:29:00,hdy,69.64
2023-10-29T12:30:00,hdy,69.48
2023-10-29T12:31:00,hdy,67.98
2023-10-29T12:32:00,hdy,65.04
2023-10-29T12:33:00,hdy,65.64
2023-10-29T12:34:00,hdy,67.48
2023-10-29T12:35:00,hdy,67.80
2023-10-29T12:36:00,hdy,67.76
2023-10-29T12:37:00,hdy,69.55
2023-10-29T12:38:00,hdy,66.76
2023-10-29T12:39:00,hdy,65.54
2023-10-29T12:40:00,hdy,65.61
2023-10-29T12:41:00,hdy,67.14
2023-10-29T12:42:00,hdy,66.66
2023-10-29T12:43:00,hdy,68.39
2023-10-29T12:44:00,hdy,68.32
2023-10-29T12:45:00,hdy,66.59
2023-10-29T12:46:00,hdy,65.31
2023-10-29T12:47:00,hdy,66.21
2023-10-29T12:48:00,hdy,66.02
2023-10-29T12:49:00,hdy,63.89
2023-10-29T12:50:00,hdy,66.84
2023-10-29T12:51:00,hdy,66.21
2023-10-29T12:52:00,hdy,68.91
2023-10-29T12:53:00,hdy,67.08
2023-10-29T12:54:00,hdy,67.19
2023-10-29T12:55:00,hdy,64.63
2023-10-29T12:56:00,hdy,66.94
2023-10-29T12:57:00,hdy,64.41
2023-10-29T12:58:00,hdy,65.87
2023-10-29T12:59:00,hdy,65.07
2023-10-29T13:00:00,hdy,66.17
2023-10-29T13:01:00,hdy,66.83
2023-10-29T13:02:00,hdy,66.45
2023-10-29T13:03:00,hdy,65.39
2023-10-29T13:04:00,hdy,63.36
2023-10-29T13:05:00,hdy,64.05
2023-10-29T13:06:00,hdy,64.07
2023-10-29T13:07:00,hdy,65.70
2023-10-29T13:08:00,hdy,73.72
2023-10-29T13:09:00,hdy,69.74
2023-10-29T13:10:00,hdy,68.52
2023-10-29T13:11:00,hdy,68.03
2023-10-29T13:12:00,hdy,68.47
2023-10-29T13:13:00,hdy,67.29
2023-10-29T13:14:00,hdy,67.41
2023-10-29T13:15:00,hdy,67.41
2023-10-29T13:16:00,hdy,70.47
2023-10-29T13:17:00,hdy,68.92
2023-10-29T13:18:00,hdy,68.33